Simultaneous Nadir Overpasses (SNOs) Predictions

Prediction of SNOs between METOP-B and NOAA-19 Satellite Orbit:

Table of predicted SNOs for the next 14.0 days since TLE Epoch: 6/22/2018
Index Date (METOP-B) Time (METOP-B) Lat,Lon (METOP-B) SZA (METOP-B ) Date (NOAA-19) Time (NOAA-19) Lat,Lon (NOAA-19) SZA (NOAA-19 ) Distance(km) Time Diff (sec)
1 06/28/2018 09:16:30 -78.79,-127.00 124.30 06/28/2018 09:15:26 -78.78,-131.44 124.47 96.13 64
2 06/28/2018 10:07:20 78.42, 38.10 55.25 06/28/2018 10:06:14 78.43, 38.24 55.25 3.13 66
3 06/28/2018 10:58:01 -78.43,-154.52 124.74 06/28/2018 10:57:17 -78.42,-154.50 124.75 0.59 44
4 06/28/2018 11:48:41 78.44, 12.88 55.28 06/28/2018 11:48:15 78.42, 12.77 55.25 3.19 26
5 06/28/2018 12:39:23 -78.41,-179.96 124.76 06/28/2018 12:39:18 -78.42,-179.97 124.75 1.06 5
6 06/28/2018 13:30:03 78.42, -12.56 55.26 06/28/2018 13:30:16 78.42, -12.70 55.25 3.03 13
7 06/28/2018 14:20:45 -78.39, 154.59 124.78 06/28/2018 14:21:19 -78.41, 154.56 124.75 2.69 34
8 06/28/2018 15:11:25 78.40, -38.01 55.24 06/28/2018 15:12:16 78.37, -37.93 55.22 3.52 51
9 06/28/2018 16:02:07 -78.37, 129.15 124.80 06/28/2018 16:03:19 -78.37, 129.32 124.78 3.76 72




NCC Satellite Simultaneous Nadir Overpasses (SNOs) Prediction Service
